Location: Rancho Del Sol Observatory
(38.7214°N, 120.6350°W)
Time: 22:40:55
(UTC-08:00)

Courier 1B Rocket - Pass Details

Date: 29 January 2020
Orbit: 920 x 1202 km, 28.2° (Epoch: 27 February)

Event Time Altitude Azimuth Distance (km) Brightness Sun altitude
Rises 09:30:43 0° 230° (SW) 4,073 8.2 21.4°
Reaches altitude 10° 09:34:04 10° 219° (SW) 3,089 7.8 21.9°
Maximum altitude 09:40:16 27° 165° (SSE) 2,022 8.2 22.7°
Drops below altitude 10° 09:46:14 10° 110° (ESE) 2,955 8.7 23.4°
Sets 09:49:21 0° 99° (E) 3,866 8.8 23.8°
